Weather History for Charles City, IA

Change the Weather History Date:

Saturday, January 19, 2013

  Actual Average Record
Temperature  
Mean Temperature 27 °F -  
Max Temperature 46 °F 25 °F 48 °F (1981)
Min Temperature 8 °F 5 °F -26 °F (1970)
Degree Days  
Heating Degree Days 38    
Moisture  
Dew Point 23 °F    
Average Humidity 72    
Maximum Humidity 93    
Minimum Humidity 53    
Precipitation  
Precipitation 0.00 in - - ()
Sea Level Pressure  
Sea Level Pressure 29.89 in    
Wind  
Wind Speed 14 mph (West)    
Max Wind Speed 38 mph    
Max Gust Speed 52 mph    
Visibility 10 miles    
Events Rain    
Averages and records for this station are not official NWS values.
T = Trace of Precipitation, MM = Missing Value Source: NWS Daily Summary

Daily Weather History Graph

Daily Weather History Graph

Search for Another Location

Airport:

Trip Planner

Search our weather history database for the weather conditions in past years. The results will help you decide how hot, cold, wet, or windy it might be!

Date:

Astronomy

Jan. 19, 2013 Rise Set
Actual Time 7:36 AM CST 5:06 PM CST
Civil Twilight 7:05 AM CST 5:37 PM CST
Nautical Twilight 6:30 AM CST 6:12 PM CST
Astronomical Twilight 5:56 AM CST 6:46 PM CST
Moon 11:34 AM CST (1/19) 1:09 AM CST (1/19)
Length of Visible Light 10h 31m
Length of Day
9h 29m
First Quarter, 57% of the Moon is Illuminated
Jan 19
First Quarter
Jan 26
Full
Feb 3
Last Quarter
Feb 10
New
Feb 17
First Quarter

Hourly Weather History & Observations

Time (CST) Temp. Windchill Dew Point Humidity Pressure Visibility Wind Dir Wind Speed Gust Speed Precip Events Conditions
12:15 AM 35.6 °F 29.9 °F 30.2 °F 81% 29.83 in 10.0 mi WSW 6.9 mph - N/A   Clear
12:35 AM 35.6 °F 29.2 °F 30.2 °F 81% 29.82 in 10.0 mi WSW 8.1 mph - N/A   Clear
12:55 AM 33.8 °F 27.7 °F 30.2 °F 87% 29.82 in 10.0 mi WSW 6.9 mph - N/A   Scattered Clouds
1:15 AM 33.8 °F 29.6 °F 30.2 °F 87% 29.81 in 10.0 mi SW 4.6 mph - N/A   Mostly Cloudy
1:35 AM 33.8 °F 27.7 °F 30.2 °F 87% 29.81 in 10.0 mi SSW 6.9 mph - N/A   Mostly Cloudy
1:55 AM 35.6 °F 29.9 °F 30.2 °F 81% 29.81 in 10.0 mi South 6.9 mph - N/A   Mostly Cloudy
2:15 AM 33.8 °F 27.7 °F 30.2 °F 87% 29.81 in 10.0 mi South 6.9 mph - N/A   Mostly Cloudy
2:35 AM 33.8 °F 27.0 °F 30.2 °F 87% 29.82 in 10.0 mi SSW 8.1 mph - N/A   Overcast
2:55 AM 33.8 °F 25.8 °F 30.2 °F 87% 29.81 in 10.0 mi SSW 10.4 mph - N/A   Overcast
3:15 AM 33.8 °F 25.3 °F 30.2 °F 87% 29.80 in 10.0 mi SSW 11.5 mph - N/A   Overcast
3:35 AM 33.8 °F 27.7 °F 30.2 °F 87% 29.79 in 10.0 mi South 6.9 mph - N/A   Overcast
3:55 AM 33.8 °F 27.7 °F 30.2 °F 87% 29.79 in 10.0 mi SSW 6.9 mph - N/A   Overcast
4:15 AM 32.0 °F 26.4 °F 30.2 °F 93% 29.78 in 10.0 mi South 5.8 mph - N/A   Overcast
4:35 AM 32.0 °F 27.5 °F 30.2 °F 93% 29.78 in 10.0 mi SSW 4.6 mph - N/A   Overcast
4:55 AM 32.0 °F 25.6 °F 28.4 °F 87% 29.77 in 10.0 mi South 6.9 mph - N/A   Overcast
5:15 AM 32.0 °F 25.6 °F 28.4 °F 87% 29.76 in 10.0 mi South 6.9 mph - N/A   Overcast
5:35 AM 32.0 °F 26.4 °F 30.2 °F 93% 29.77 in 10.0 mi SSW 5.8 mph - N/A   Overcast
7:15 AM 32.0 °F 27.5 °F 30.2 °F 93% 29.75 in 10.0 mi South 4.6 mph - N/A   Overcast
7:55 AM 32.0 °F 24.8 °F 30.2 °F 93% 29.75 in 10.0 mi SSW 8.1 mph - N/A   Overcast
8:15 AM 33.8 °F 27.0 °F 30.2 °F 87% 29.76 in 10.0 mi SW 8.1 mph - N/A   Overcast
8:35 AM 33.8 °F 27.0 °F 30.2 °F 87% 29.76 in 10.0 mi WSW 8.1 mph - N/A   Mostly Cloudy
9:55 AM 39.2 °F 31.6 °F 30.2 °F 70% 29.77 in 10.0 mi West 12.7 mph - N/A   Clear
10:15 AM 39.2 °F 31.6 °F 30.2 °F 70% 29.78 in 10.0 mi West 12.7 mph - N/A   Clear
10:35 AM 39.2 °F 31.6 °F 30.2 °F 70% 29.79 in 10.0 mi West 12.7 mph 18.4 mph N/A   Scattered Clouds
10:55 AM 41.0 °F 33.5 °F 30.2 °F 65% 29.79 in 10.0 mi WNW 13.8 mph 20.7 mph N/A   Partly Cloudy
11:15 AM 42.8 °F 35.8 °F 32.0 °F 66% 29.78 in 10.0 mi WNW 13.8 mph 23.0 mph N/A   Clear
11:35 AM 42.8 °F 34.8 °F 32.0 °F 66% 29.77 in 10.0 mi WNW 17.3 mph - N/A   Partly Cloudy
11:55 AM 42.8 °F 34.3 °F 32.0 °F 66% 29.77 in 10.0 mi WNW 19.6 mph - N/A   Mostly Cloudy
12:15 PM 42.8 °F 33.5 °F 32.0 °F 66% 29.77 in 10.0 mi WNW 23.0 mph 31.1 mph N/A   Scattered Clouds
12:35 PM 44.6 °F 37.2 °F 32.0 °F 61% 29.77 in 10.0 mi WNW 17.3 mph 25.3 mph N/A   Clear
12:55 PM 44.6 °F 36.6 °F 32.0 °F 61% 29.77 in 10.0 mi WNW 19.6 mph - N/A   Clear
1:15 PM 44.6 °F 36.9 °F 32.0 °F 61% 29.76 in 10.0 mi WNW 18.4 mph - N/A   Clear
1:55 PM 46.4 °F 38.1 °F 32.0 °F 57% 29.79 in 10.0 mi WNW 24.2 mph 31.1 mph N/A   Partly Cloudy
2:15 PM 44.6 °F 36.9 °F 33.8 °F 66% 29.79 in 10.0 mi WNW 18.4 mph 26.5 mph N/A   Mostly Cloudy
2:35 PM 44.6 °F 35.5 °F 32.0 °F 61% 29.81 in 10.0 mi WNW 25.3 mph 31.1 mph N/A   Scattered Clouds
2:55 PM 42.8 °F 33.8 °F 32.0 °F 66% 29.82 in 10.0 mi WNW 21.9 mph 31.1 mph N/A   Partly Cloudy
3:15 PM 42.8 °F 33.8 °F 33.8 °F 70% 29.83 in 10.0 mi WNW 21.9 mph - N/A   Partly Cloudy
3:35 PM 42.8 °F 34.0 °F 30.2 °F 61% 29.83 in 10.0 mi WNW 20.7 mph 39.1 mph N/A   Scattered Clouds
3:55 PM 41.0 °F 30.5 °F 30.2 °F 65% 29.84 in 10.0 mi WNW 26.5 mph 33.4 mph N/A   Mostly Cloudy
4:15 PM 41.0 °F 31.4 °F 30.2 °F 65% 29.86 in 10.0 mi WNW 21.9 mph 36.8 mph N/A   Overcast
4:35 PM 39.2 °F 28.0 °F 30.2 °F 70% 29.87 in 10.0 mi WNW 26.5 mph 33.4 mph N/A   Overcast
4:55 PM 39.2 °F 28.0 °F 30.2 °F 70% 29.88 in 10.0 mi WNW 26.5 mph 41.4 mph N/A   Overcast
5:15 PM 33.8 °F 20.3 °F 28.4 °F 81% 29.90 in 10.0 mi NW 28.8 mph 39.1 mph N/A   Mostly Cloudy
5:35 PM 32.0 °F 17.0 °F 24.8 °F 75% 29.92 in 10.0 mi WNW 33.4 mph 43.7 mph N/A   Mostly Cloudy
5:55 PM 30.2 °F 13.7 °F 23.0 °F 75% 29.95 in 10.0 mi NW 38.0 mph 49.5 mph N/A   Mostly Cloudy
6:15 PM 26.6 °F 9.3 °F 19.4 °F 74% 29.97 in 10.0 mi NW 34.5 mph 44.9 mph N/A   Mostly Cloudy
6:35 PM 24.8 °F 7.6 °F 15.8 °F 69% 29.98 in 10.0 mi NW 31.1 mph 43.7 mph N/A   Scattered Clouds
6:55 PM 24.8 °F 6.2 °F 14.0 °F 64% 30.01 in 10.0 mi WNW 38.0 mph 46.0 mph N/A Rain Light Freezing Rain
7:15 PM 21.2 °F 3.5 °F 10.4 °F 63% 30.03 in 10.0 mi NW 27.6 mph 51.8 mph N/A   Mostly Cloudy
7:35 PM 19.4 °F -0.8 °F 6.8 °F 58% 30.04 in 10.0 mi NW 35.7 mph 47.2 mph N/A   Scattered Clouds
7:55 PM 17.6 °F -3.6 °F 3.2 °F 53% 30.06 in 10.0 mi WNW 36.8 mph 49.5 mph N/A   Clear
8:15 PM 15.8 °F -4.7 °F 3.2 °F 58% 30.07 in 10.0 mi NW 31.1 mph 47.2 mph N/A   Clear
8:35 PM 15.8 °F -5.0 °F 3.2 °F 58% 30.08 in 10.0 mi NW 32.2 mph 42.6 mph N/A   Clear
8:55 PM 15.8 °F -5.2 °F 3.2 °F 58% 30.09 in 10.0 mi NW 33.4 mph 41.4 mph N/A   Partly Cloudy
9:15 PM 14.0 °F -5.5 °F 3.2 °F 62% 30.10 in 10.0 mi NW 25.3 mph 38.0 mph N/A   Scattered Clouds
9:35 PM 12.2 °F -7.9 °F 3.2 °F 67% 30.11 in 10.0 mi NW 25.3 mph 36.8 mph N/A   Mostly Cloudy
9:55 PM 12.2 °F -9.6 °F 1.4 °F 62% 30.12 in 10.0 mi NW 31.1 mph 40.3 mph N/A   Partly Cloudy
10:15 PM 12.2 °F -9.9 °F -0.4 °F 57% 30.13 in 10.0 mi NW 32.2 mph 41.4 mph N/A   Partly Cloudy
10:35 PM 10.4 °F -10.7 °F -0.4 °F 62% 30.16 in 10.0 mi NW 26.5 mph 35.7 mph N/A   Partly Cloudy
10:55 PM 10.4 °F -10.3 °F 1.4 °F 67% 30.16 in 10.0 mi NW 25.3 mph 38.0 mph N/A   Scattered Clouds
11:15 PM 8.6 °F -12.7 °F -2.2 °F 62% 30.17 in 10.0 mi NW 25.3 mph 35.7 mph N/A   Partly Cloudy
11:35 PM 8.6 °F -10.0 °F -2.2 °F 62% 30.18 in 10.0 mi NW 18.4 mph 29.9 mph N/A   Scattered Clouds
11:55 PM 8.6 °F -10.5 °F -2.2 °F 62% 30.18 in 10.0 mi NW 19.6 mph 32.2 mph N/A   Mostly Cloudy